North Myrtle Beach, SC

3:43 PM EST on December 05, 2019 (GMT -0500)
Grand Strand

Weather History for KCRE - October, 2019

Change the Weather History Date:

Monday, October 21, 2019

  Actual Average Record
Temperature  
Mean Temperature 65 °F 64 °F  
Max Temperature 72 °F 74 °F 85 °F (1998)
Min Temperature 58 °F 54 °F 34 °F (1954)
Degree Days  
Heating Degree Days 0 4  
Month to date heating degree days 12 38  
Since 1 July heating degree days 12 42  
Cooling Degree Days 0 2  
Month to date cooling degree days 138 80  
Year to date cooling degree days 2321 1864  
Growing Degree Days 14 (Base 50)    
Moisture  
Dew Point 61 °F    
Average Humidity 87    
Maximum Humidity 100    
Minimum Humidity 73    
Precipitation  
Precipitation 0.02 in 0.12 in 0.69 in (1959)
Month to date precipitation 4.05 2.90  
Year to date precipitation 46.62 44.53  
Sea Level Pressure  
Sea Level Pressure 30.03 in    
Wind  
Wind Speed 5 mph (ESE)    
Max Wind Speed 13 mph    
Max Gust Speed 15 mph    
Visibility 10 miles    
Events      
T = Trace of Precipitation, MM = Missing Value Source: NWS Daily Summary

Daily Weather History Graph

Daily Weather History Graph

Search for Another Location

Airport or City:

Astronomy

Oct. 21, 2019 Rise Set
Actual Time 7:24 AM EDT 6:34 PM EDT
Civil Twilight 6:59 AM EDT 6:59 PM EDT
Nautical Twilight 6:30 AM EDT 7:28 PM EDT
Astronomical Twilight 6:01 AM EDT 7:57 PM EDT
Moon No Moon Rise 2:31 PM EDT (10/21)
Length of Visible Light 12h 00m
Length of Day
11h 09m
Waning Gibbous, 48% of the Moon is Illuminated
Oct 21
Waning Gibbous
Oct 27
New
Nov 4
First Quarter
Nov 12
Full
Nov 19
Last Quarter

Hourly Weather History & Observations

Time (EDT) Temp. Dew Point Humidity Pressure Visibility Wind Dir Wind Speed Gust Speed Precip Events Conditions
12:53 AM 61.0 °F 59.0 °F 93% 29.97 in 10.0 mi West 4.6 mph - N/A   Clear
1:53 AM 64.0 °F 59.0 °F 84% 29.97 in 10.0 mi NNW 3.5 mph - N/A   Clear
2:53 AM 60.1 °F 57.9 °F 93% 29.98 in 10.0 mi WNW 3.5 mph - N/A   Clear
3:53 AM 60.1 °F 57.9 °F 93% 29.99 in 10.0 mi WNW 3.5 mph - N/A   Clear
4:53 AM 59.0 °F 57.9 °F 96% 30.01 in 10.0 mi WNW 4.6 mph - N/A   Clear
5:53 AM 59.0 °F 57.0 °F 93% 30.02 in 10.0 mi NW 3.5 mph - N/A   Clear
6:53 AM 59.0 °F 57.0 °F 93% 30.03 in 10.0 mi Calm Calm - N/A   Clear
7:53 AM 57.9 °F 57.0 °F 97% 30.03 in 10.0 mi NE 3.5 mph - N/A   Clear
8:53 AM 62.1 °F 59.0 °F 90% 30.05 in 10.0 mi NNE 10.4 mph - N/A   Clear
9:53 AM 64.9 °F 59.0 °F 81% 30.06 in 10.0 mi NE 10.4 mph - N/A   Clear
10:53 AM 69.1 °F 60.1 °F 73% 30.07 in 10.0 mi Calm Calm - N/A   Clear
11:53 AM - - N/A% 30.08 in - ESE 4.6 mph - N/A   Unknown
12:53 PM 70.0 °F 62.1 °F 76% 30.08 in 10.0 mi SE 5.8 mph - 0.02 in   Clear
1:53 PM 71.1 °F 62.1 °F 73% 30.05 in 10.0 mi SE 5.8 mph - N/A   Clear
2:53 PM 71.1 °F 63.0 °F 75% 30.04 in 10.0 mi SE 8.1 mph - N/A   Clear
3:53 PM 71.1 °F 63.0 °F 75% 30.04 in 10.0 mi ESE 6.9 mph - N/A   Partly Cloudy
4:53 PM 70.0 °F 63.0 °F 78% 30.04 in 10.0 mi ESE 8.1 mph - N/A   Scattered Clouds
5:33 PM 70.0 °F 63.0 °F 78% 30.03 in 10.0 mi ESE 5.8 mph - N/A   Mostly Cloudy
5:53 PM 69.1 °F 63.0 °F 81% 30.04 in 10.0 mi ESE 5.8 mph - N/A   Overcast
6:53 PM 69.1 °F 63.0 °F 81% 30.05 in 10.0 mi ESE 6.9 mph - N/A   Overcast
7:53 PM 70.0 °F 64.0 °F 81% 30.06 in 10.0 mi SE 3.5 mph - N/A   Overcast
8:31 PM 70.0 °F 64.0 °F 81% 30.05 in 10.0 mi SE 5.8 mph - N/A   Overcast
8:53 PM 70.0 °F 63.0 °F 78% 30.05 in 10.0 mi ESE 4.6 mph - N/A   Overcast
9:53 PM 70.0 °F 64.0 °F 81% 30.05 in 10.0 mi SE 8.1 mph - N/A   Overcast